Time,TemperatureF,DewpointF,PressureIn,WindDirection,WindDirectionDegrees,WindSpeedMPH,WindSpeedGustMPH,Humidity,HourlyPrecipIn,Conditions,Clouds,dailyrainin,SoftwareType,DateUTC
2013-05-01 00:03:00,56.5,53.0,30.24,South,169,0.0,2.0,88,0.00,,,0.00,weatherlink.com 1.10,2013-05-01 04:03:00,
2013-05-01 00:18:00,56.6,53.0,30.24,SSW,212,0.0,0.0,87,0.00,,,0.00,weatherlink.com 1.10,2013-05-01 04:18:00,
2013-05-01 00:34:00,56.3,53.0,30.25,South,186,0.0,0.0,88,0.00,,,0.00,weatherlink.com 1.10,2013-05-01 04:34:00,
2013-05-01 00:48:00,56.9,53.0,30.25,SSW,212,0.0,0.0,87,0.00,,,0.00,weatherlink.com 1.10,2013-05-01 04:48:00,
2013-05-01 01:03:00,56.7,53.0,30.25,SSW,198,0.0,0.0,87,0.00,,,0.00,weatherlink.com 1.10,2013-05-01 05:03:00,
2013-05-01 01:18:00,56.9,53.0,30.25,SSW,198,0.0,0.0,87,0.00,,,0.00,weatherlink.com 1.10,2013-05-01 05:18:00,
2013-05-01 01:33:00,57.0,53.0,30.24,SSW,199,0.0,0.0,87,0.00,,,0.00,weatherlink.com 1.10,2013-05-01 05:33:00,
2013-05-01 01:48:00,57.0,53.0,30.25,SSW,200,0.0,0.0,87,0.00,,,0.00,weatherlink.com 1.10,2013-05-01 05:48:00,
2013-05-01 02:03:00,57.0,53.0,30.25,SSW,200,0.0,0.0,87,0.00,,,0.00,weatherlink.com 1.10,2013-05-01 06:03:00,
2013-05-01 02:18:00,57.2,53.0,30.25,ENE,58,0.0,3.0,85,0.00,,,0.00,weatherlink.com 1.10,2013-05-01 06:18:00,
2013-05-01 02:34:00,56.7,53.0,30.25,ESE,103,0.0,0.0,87,0.00,,,0.00,weatherlink.com 1.10,2013-05-01 06:34:00,
2013-05-01 02:48:00,56.2,53.0,30.25,SE,125,0.0,0.0,88,0.00,,,0.00,weatherlink.com 1.10,2013-05-01 06:48:00,
2013-05-01 03:03:00,56.0,53.0,30.24,SE,126,0.0,0.0,88,0.00,,,0.00,weatherlink.com 1.10,2013-05-01 07:03:00,
2013-05-01 03:18:00,55.8,53.0,30.25,SE,126,0.0,0.0,89,0.00,,,0.00,weatherlink.com 1.10,2013-05-01 07:18:00,
2013-05-01 03:33:00,55.6,53.0,30.24,East,87,0.0,1.0,89,0.00,,,0.00,weatherlink.com 1.10,2013-05-01 07:33:00,
2013-05-01 03:49:00,55.5,52.0,30.24,East,87,0.0,0.0,88,0.00,,,0.00,weatherlink.com 1.10,2013-05-01 07:49:00,
2013-05-01 04:04:00,55.4,52.0,30.24,East,88,0.0,0.0,88,0.00,,,0.00,weatherlink.com 1.10,2013-05-01 08:04:00,
2013-05-01 04:19:00,55.3,52.0,30.24,ENE,59,0.0,0.0,88,0.00,,,0.00,weatherlink.com 1.10,2013-05-01 08:19:00,
2013-05-01 04:34:00,55.0,51.0,30.24,ENE,74,0.0,1.0,87,0.00,,,0.00,weatherlink.com 1.10,2013-05-01 08:34:00,
2013-05-01 04:49:00,55.0,51.0,30.24,ENE,65,0.0,2.0,87,0.00,,,0.00,weatherlink.com 1.10,2013-05-01 08:49:00,
2013-05-01 05:04:00,55.0,51.0,30.25,ENE,78,0.0,1.0,87,0.00,,,0.00,weatherlink.com 1.10,2013-05-01 09:04:00,
2013-05-01 05:19:00,54.7,50.0,30.24,NNE,25,0.0,0.0,85,0.00,,,0.00,weatherlink.com 1.10,2013-05-01 09:19:00,
2013-05-01 05:34:00,54.8,50.0,30.24,SE,139,0.0,4.0,83,0.00,,,0.00,weatherlink.com 1.10,2013-05-01 09:34:00,
2013-05-01 05:49:00,54.8,50.0,30.24,SSE,160,1.0,3.0,83,0.00,,,0.00,weatherlink.com 1.10,2013-05-01 09:49:00,
2013-05-01 06:04:00,54.5,49.0,30.25,ENE,70,2.0,3.0,83,0.00,,,0.00,weatherlink.com 1.10,2013-05-01 10:04:00,
2013-05-01 06:19:00,54.3,50.0,30.25,ENE,75,0.0,3.0,84,0.00,,,0.00,weatherlink.com 1.10,2013-05-01 10:19:00,
2013-05-01 06:34:00,52.8,49.0,30.25,SE,125,0.0,2.0,86,0.00,,,0.00,weatherlink.com 1.10,2013-05-01 10:34:00,
2013-05-01 06:49:00,52.0,48.0,30.26,SSE,160,0.0,4.0,87,0.00,,,0.00,weatherlink.com 1.10,2013-05-01 10:49:00,
2013-05-01 07:04:00,51.8,48.0,30.26,South,169,0.0,3.0,88,0.00,,,0.00,weatherlink.com 1.10,2013-05-01 11:04:00,
2013-05-01 07:19:00,52.3,49.0,30.26,SW,229,0.0,2.0,87,0.00,,,0.00,weatherlink.com 1.10,2013-05-01 11:19:00,
2013-05-01 07:34:00,52.5,49.0,30.27,SSE,162,1.0,2.0,88,0.00,,,0.00,weatherlink.com 1.10,2013-05-01 11:34:00,
2013-05-01 07:49:00,53.0,49.0,30.27,SSW,211,0.0,1.0,87,0.00,,,0.00,weatherlink.com 1.10,2013-05-01 11:49:00,
2013-05-01 08:04:00,53.9,50.0,30.28,WNW,294,1.0,4.0,85,0.00,,,0.00,weatherlink.com 1.10,2013-05-01 12:04:00,
2013-05-01 08:19:00,55.0,50.0,30.28,WSW,252,1.0,2.0,84,0.00,,,0.00,weatherlink.com 1.10,2013-05-01 12:19:00,
2013-05-01 08:34:00,55.3,50.0,30.29,NE,53,1.0,5.0,82,0.00,,,0.00,weatherlink.com 1.10,2013-05-01 12:34:00,
2013-05-01 08:49:00,55.8,50.0,30.29,SW,219,1.0,5.0,80,0.00,,,0.00,weatherlink.com 1.10,2013-05-01 12:49:00,
2013-05-01 09:04:00,56.7,50.0,30.29,WSW,243,1.0,6.0,78,0.00,,,0.00,weatherlink.com 1.10,2013-05-01 13:04:00,
2013-05-01 09:19:00,57.4,51.0,30.29,NW,317,0.0,4.0,80,0.00,,,0.00,weatherlink.com 1.10,2013-05-01 13:19:00,
2013-05-01 09:34:00,58.2,50.0,30.30,NW,312,4.0,5.0,75,0.00,,,0.00,weatherlink.com 1.10,2013-05-01 13:34:00,
2013-05-01 09:49:00,59.3,51.0,30.30,East,82,3.0,3.0,75,0.00,,,0.00,weatherlink.com 1.10,2013-05-01 13:49:00,
2013-05-01 10:04:00,60.1,51.0,30.31,WNW,295,2.0,3.0,72,0.00,,,0.00,weatherlink.com 1.10,2013-05-01 14:04:00,
2013-05-01 10:19:00,60.2,50.0,30.32,North,6,4.0,6.0,70,0.00,,,0.00,weatherlink.com 1.10,2013-05-01 14:19:00,
2013-05-01 10:34:00,61.4,51.0,30.30,NNW,328,2.0,5.0,69,0.00,,,0.00,weatherlink.com 1.10,2013-05-01 14:34:00,
2013-05-01 10:49:00,61.9,50.0,30.30,NNE,22,2.0,4.0,66,0.00,,,0.00,weatherlink.com 1.10,2013-05-01 14:49:00,
2013-05-01 11:05:00,62.9,50.0,30.30,NE,46,3.0,6.0,64,0.00,,,0.00,weatherlink.com 1.10,2013-05-01 15:05:00,
2013-05-01 11:20:00,63.3,51.0,30.30,NNE,23,2.0,6.0,65,0.00,,,0.00,weatherlink.com 1.10,2013-05-01 15:20:00,
2013-05-01 11:35:00,64.4,51.0,30.30,NE,37,1.0,4.0,62,0.00,,,0.00,weatherlink.com 1.10,2013-05-01 15:35:00,
2013-05-01 11:50:00,65.4,51.0,30.30,SW,236,1.0,4.0,59,0.00,,,0.00,weatherlink.com 1.10,2013-05-01 15:50:00,
2013-05-01 12:05:00,65.8,50.0,30.29,East,95,2.0,5.0,57,0.00,,,0.00,weatherlink.com 1.10,2013-05-01 16:05:00,
2013-05-01 12:20:00,66.8,52.0,30.28,WNW,297,2.0,3.0,60,0.00,,,0.00,weatherlink.com 1.10,2013-05-01 16:20:00,
2013-05-01 12:35:00,67.7,53.0,30.27,WNW,287,3.0,6.0,59,0.00,,,0.00,weatherlink.com 1.10,2013-05-01 16:35:00,
2013-05-01 12:50:00,68.0,53.0,30.27,NNE,12,2.0,5.0,59,0.00,,,0.00,weatherlink.com 1.10,2013-05-01 16:50:00,
2013-05-01 13:05:00,68.3,51.0,30.27,East,94,2.0,5.0,55,0.00,,,0.00,weatherlink.com 1.10,2013-05-01 17:05:00,
2013-05-01 13:20:00,68.4,51.0,30.27,WSW,242,1.0,6.0,54,0.00,,,0.00,weatherlink.com 1.10,2013-05-01 17:20:00,
2013-05-01 13:35:00,68.2,51.0,30.27,WNW,290,4.0,13.0,55,0.00,,,0.00,weatherlink.com 1.10,2013-05-01 17:35:00,
2013-05-01 13:50:00,67.8,50.0,30.28,SSE,150,1.0,6.0,53,0.00,,,0.00,weatherlink.com 1.10,2013-05-01 17:50:00,
2013-05-01 14:05:00,67.4,49.0,30.28,NW,304,3.0,6.0,52,0.00,,,0.00,weatherlink.com 1.10,2013-05-01 18:05:00,
2013-05-01 14:20:00,67.4,48.0,30.29,NE,47,0.0,6.0,50,0.00,,,0.00,weatherlink.com 1.10,2013-05-01 18:20:00,
2013-05-01 14:35:00,66.4,49.0,30.28,SW,221,1.0,7.0,53,0.00,,,0.00,weatherlink.com 1.10,2013-05-01 18:35:00,
2013-05-01 14:50:00,66.3,49.0,30.28,East,83,1.0,6.0,54,0.00,,,0.00,weatherlink.com 1.10,2013-05-01 18:50:00,
2013-05-01 15:05:00,66.6,48.0,30.28,NNE,30,0.0,5.0,52,0.00,,,0.00,weatherlink.com 1.10,2013-05-01 19:05:00,
2013-05-01 15:20:00,66.4,50.0,30.28,ESE,113,0.0,6.0,55,0.00,,,0.00,weatherlink.com 1.10,2013-05-01 19:20:00,
2013-05-01 15:35:00,66.4,48.0,30.27,SE,129,2.0,5.0,52,0.00,,,0.00,weatherlink.com 1.10,2013-05-01 19:35:00,
2013-05-01 15:50:00,66.4,47.0,30.27,WNW,302,3.0,5.0,50,0.00,,,0.00,weatherlink.com 1.10,2013-05-01 19:50:00,
2013-05-01 16:05:00,65.8,49.0,30.27,NE,56,1.0,6.0,54,0.00,,,0.00,weatherlink.com 1.10,2013-05-01 20:05:00,
2013-05-01 16:20:00,64.7,48.0,30.26,NNE,32,4.0,7.0,55,0.00,,,0.00,weatherlink.com 1.10,2013-05-01 20:20:00,
2013-05-01 16:35:00,64.3,48.0,30.26,WNW,288,0.0,7.0,55,0.00,,,0.00,weatherlink.com 1.10,2013-05-01 20:35:00,
2013-05-01 16:50:00,64.5,49.0,30.26,NE,36,4.0,5.0,57,0.00,,,0.00,weatherlink.com 1.10,2013-05-01 20:50:00,
2013-05-01 17:05:00,64.1,49.0,30.26,NNE,20,1.0,7.0,58,0.00,,,0.00,weatherlink.com 1.10,2013-05-01 21:05:00,
2013-05-01 17:20:00,63.9,48.0,30.26,NNW,333,2.0,6.0,57,0.00,,,0.00,weatherlink.com 1.10,2013-05-01 21:20:00,
2013-05-01 17:35:00,63.8,49.0,30.26,NW,315,2.0,4.0,59,0.00,,,0.00,weatherlink.com 1.10,2013-05-01 21:35:00,
2013-05-01 17:50:00,63.1,48.0,30.26,SW,224,2.0,8.0,59,0.00,,,0.00,weatherlink.com 1.10,2013-05-01 21:50:00,
2013-05-01 18:05:00,62.4,49.0,30.26,WNW,284,1.0,6.0,61,0.00,,,0.00,weatherlink.com 1.10,2013-05-01 22:05:00,
2013-05-01 18:20:00,61.9,48.0,30.26,WNW,283,3.0,3.0,61,0.00,,,0.00,weatherlink.com 1.10,2013-05-01 22:20:00,
2013-05-01 18:35:00,61.2,48.0,30.26,West,273,1.0,4.0,62,0.00,,,0.00,weatherlink.com 1.10,2013-05-01 22:35:00,
2013-05-01 18:50:00,60.9,48.0,30.27,WNW,290,2.0,2.0,62,0.00,,,0.00,weatherlink.com 1.10,2013-05-01 22:50:00,
2013-05-01 19:05:00,60.5,49.0,30.26,WNW,296,0.0,3.0,65,0.00,,,0.00,weatherlink.com 1.10,2013-05-01 23:05:00,
2013-05-01 19:20:00,59.9,48.0,30.26,West,260,0.0,7.0,66,0.00,,,0.00,weatherlink.com 1.10,2013-05-01 23:20:00,
2013-05-01 19:35:00,59.2,48.0,30.27,North,349,3.0,6.0,67,0.00,,,0.00,weatherlink.com 1.10,2013-05-01 23:35:00,
2013-05-01 19:50:00,58.4,49.0,30.26,NW,321,2.0,6.0,71,0.00,,,0.00,weatherlink.com 1.10,2013-05-01 23:50:00,
2013-05-01 20:05:00,57.6,48.0,30.27,ESE,117,1.0,11.0,71,0.00,,,0.00,weatherlink.com 1.10,2013-05-02 00:05:00,
2013-05-01 20:20:00,57.2,48.0,30.27,East,82,4.0,10.0,71,0.00,,,0.00,weatherlink.com 1.10,2013-05-02 00:20:00,
2013-05-01 20:35:00,57.0,48.0,30.28,NE,40,2.0,10.0,71,0.00,,,0.00,weatherlink.com 1.10,2013-05-02 00:35:00,
2013-05-01 20:50:00,56.8,48.0,30.28,SSE,149,1.0,5.0,72,0.00,,,0.00,weatherlink.com 1.10,2013-05-02 00:50:00,
2013-05-01 21:05:00,56.5,48.0,30.29,SW,225,2.0,4.0,73,0.00,,,0.00,weatherlink.com 1.10,2013-05-02 01:05:00,
2013-05-01 21:20:00,56.4,48.0,30.30,SW,230,1.0,5.0,74,0.00,,,0.00,weatherlink.com 1.10,2013-05-02 01:20:00,
2013-05-01 21:35:00,56.4,48.0,30.31,NE,55,4.0,5.0,74,0.00,,,0.00,weatherlink.com 1.10,2013-05-02 01:35:00,
2013-05-01 21:50:00,56.4,49.0,30.32,SSW,211,2.0,7.0,75,0.00,,,0.00,weatherlink.com 1.10,2013-05-02 01:50:00,
2013-05-01 22:05:00,56.2,49.0,30.33,ENE,75,3.0,13.0,76,0.00,,,0.00,weatherlink.com 1.10,2013-05-02 02:05:00,
2013-05-01 22:20:00,56.0,49.0,30.32,East,94,3.0,10.0,76,0.00,,,0.00,weatherlink.com 1.10,2013-05-02 02:20:00,
2013-05-01 22:35:00,55.6,49.0,30.32,ESE,108,1.0,7.0,78,0.00,,,0.00,weatherlink.com 1.10,2013-05-02 02:35:00,
2013-05-01 22:50:00,55.5,48.0,30.32,NE,44,2.0,5.0,77,0.00,,,0.00,weatherlink.com 1.10,2013-05-02 02:50:00,
2013-05-01 23:05:00,55.4,49.0,30.32,WSW,239,0.0,7.0,78,0.00,,,0.00,weatherlink.com 1.10,2013-05-02 03:05:00,
2013-05-01 23:20:00,55.1,48.0,30.32,East,79,0.0,3.0,78,0.00,,,0.00,weatherlink.com 1.10,2013-05-02 03:20:00,
2013-05-01 23:35:00,55.0,48.0,30.33,NE,50,2.0,4.0,78,0.00,,,0.00,weatherlink.com 1.10,2013-05-02 03:35:00,
2013-05-01 23:50:00,55.1,48.0,30.32,SW,215,0.0,4.0,78,0.00,,,0.00,weatherlink.com 1.10,2013-05-02 03:50:00,